07.05.2024;07:00;34
07.05.2024;06:00;26
07.05.2024;05:00;28
07.05.2024;04:00;35
07.05.2024;03:00;46
07.05.2024;02:00;53
07.05.2024;01:00;58
07.05.2024;00:00;59
06.05.2024;23:00;61
06.05.2024;22:00;69
06.05.2024;21:00;74
06.05.2024;20:00;77
06.05.2024;19:00;82
06.05.2024;18:00;88
06.05.2024;17:00;89
06.05.2024;16:00;89
06.05.2024;15:00;85
06.05.2024;14:00;85
06.05.2024;13:00;85
06.05.2024;12:00;82
06.05.2024;11:00;56
06.05.2024;10:00;41
06.05.2024;09:00;27
06.05.2024;08:00;16
06.05.2024;07:00;5
06.05.2024;06:00;4
06.05.2024;05:00;4
06.05.2024;04:00;5
06.05.2024;03:00;5
06.05.2024;02:00;8
06.05.2024;01:00;11
06.05.2024;00:00;16
05.05.2024;23:00;27
05.05.2024;22:00;44
05.05.2024;21:00;57
05.05.2024;20:00;64
05.05.2024;19:00;71
05.05.2024;18:00;73
05.05.2024;17:00;76
05.05.2024;16:00;76
05.05.2024;15:00;72
05.05.2024;14:00;74
05.05.2024;13:00;78
05.05.2024;12:00;72
05.05.2024;11:00;51
05.05.2024;10:00;39
05.05.2024;09:00;31
05.05.2024;08:00;20
